This is the latest recevied weather packets stored in our database for station/object W5CMS-13. If no packets are shown the sender has not sent any weather packets the latest 10 day(s).
| Time | Temp. | Humidity | Pressure | Rain* | Wind** | Luminosity | Snow |
|---|---|---|---|---|---|---|---|
| 1777706418 | 11.67° C | 88% | 1018 hPa | 0 mm | - | - | - |
| 1777705817 | 11.67° C | 88% | 1018 hPa | 0 mm | - | - | - |
| 1777705218 | 11.67° C | 88% | 1018 hPa | 0 mm | - | - | - |
| 1777704617 | 11.67° C | 88% | 1018.1 hPa | 0 mm | - | - | - |
| 1777704017 | 11.67° C | 89% | 1018.2 hPa | 0 mm | - | - | - |
| 1777703417 | 11.11° C | 90% | 1018.2 hPa | 0 mm | - | - | - |
| 1777702817 | 11.11° C | 89% | 1018.1 hPa | 0 mm | - | - | - |
| 1777702217 | 11.67° C | 89% | 1018.1 hPa | 0 mm | - | - | - |
| 1777701617 | 11.67° C | 88% | 1018.1 hPa | 0 mm | - | - | - |
| 1777701017 | 12.22° C | 87% | 1018.2 hPa | 0 mm | - | - | - |
| 1777700417 | 12.22° C | 86% | 1018.1 hPa | 0 mm | - | - | - |
| 1777699818 | 12.22° C | 85% | 1017.9 hPa | 0 mm | - | - | - |
| 1777699217 | 12.78° C | 86% | 1018.1 hPa | 0 mm | - | - | - |
| 1777698617 | 12.78° C | 84% | 1018.2 hPa | 0 mm | - | - | - |
| 1777698017 | 12.78° C | 84% | 1018.3 hPa | 0 mm | - | - | - |
| 1777697417 | 13.33° C | 84% | 1018 hPa | 0 mm | - | - | - |
| 1777696818 | 13.33° C | 82% | 1018 hPa | 0 mm | - | - | - |
| 1777696217 | 13.89° C | 82% | 1017.9 hPa | 0 mm | - | - | - |
| 1777695617 | 13.33° C | 82% | 1018 hPa | 0 mm | - | - | - |
| 1777695017 | 13.89° C | 81% | 1017.8 hPa | 0 mm | - | - | - |
| 1777694418 | 13.89° C | 79% | 1017.7 hPa | 0 mm | - | - | - |
| 1777693818 | 14.44° C | 78% | 1017.7 hPa | 0 mm | - | - | - |
| 1777693217 | 15° C | 77% | 1017.8 hPa | 0 mm | - | - | - |
| 1777692618 | 15° C | 77% | 1017.9 hPa | 0 mm | - | - | - |
| 1777692021 | 15° C | 77% | 1017.8 hPa | 0 mm | - | - | - |
* Rain latest hour (hover to see other rain measurements)
** Current wind speed in m/s (hover to see current wind gust speed)